Showing default

CHAMRAN-1, 61072

Orbit data source: Space-Track

CHAMRAN-1, 61072 is an Iranian payload satellite in LEO that was launched on Sat, 14 Sep 2024 UTC via a QAEM-100 launch vehicle from the Sharud Missile Test Site (SMTS). Payload-class satellites include a variety of spacecraft equipped with specific instruments for various scientific and technological missions. These include communications satellites like Starlink; space stations such as the ISS; scientific satellites like the Hubble; Earth observation satellites from companies like Planet Labs, Umbra, and HawkEye 360; GPS; miniature CubeSats for education and research; and military/defense satellites.

Loading next visibility...
Identifier
61072, 2024-165B
Orbit
LEO
Last TLE update
3 hours ago
Origin
Manufacturer
IEI
Mission
Operational Defense Communications
Bus & Motor
Unknown
Mass
60 kg wet, 60 kg dry
Launch date (UTC)
2024-09-14 (10 months ago)
Launch vehicle
QAEM-100
Launch site
Sharud Missile Test Site (SMTS)
Object type
Payload
Rocket body
Debris
Shape & HBR
Box, 0.5 m
Radar Cross Section
0.375 m², Medium (>0.1 m² and < 1m²)

Expand to show TLE details & history

TLE from 3 hours ago
0 CHAMRAN-1
1 61072U 24165B   25186.86833654  .00003168  00000-0  21744-3 0  9998
2 61072  64.0901  97.7269 0024382 314.6071  45.3053 15.07742178 44391
Epoch: 2025-07-05T20:50Z
TLE epoch observation values (Epoch: 2025-07-05T20:50:24.277Z)
Latitude
-0.00002°
Longitude
-138.97447°
Altitude
533.215 km
Speed
7.603 km/s
True Right ascension
06h 30m 54s
True Declination
0° 00' 00"
Sunlit
Object was in daylight at epoch
Visualization orbit readout
Latitude
50.46644°
Longitude
-103.61336°
Altitude
554.229 km
Speed
7.588 km/s
Apparent Right ascension
04h 07m 58s
Apparent Declination
17° 27' 27"
Sunlit
Object is in daylight
Visualization observer readout
Local Sidereal Time
12:13:29
Azimuth
303.974° NW
Elevation
-10.863°
Doppler factor
1
Orbital elements
Apogee altitude
558.618 km
Perigee altitude
524.874 km
Semi-major axis
6,919.883 km
Eccentricity
0.00244
Inclination
64.0901°
RAAN
97.7269°
Arg. of periapsis
314.6071°
True anomaly
Unknown
Mean anomaly
45.3053°
Eccentric anomaly
Unknown
Mean motion
3.77047 °/min
Orbital period
95.48 mins
BSTAR
0.00021744
Loading maneuver chart data...
Loading SW <> Apogee altitude chart data...
Loading historical data...
Loading historical data...
Loading historical data...
Loading historical data...
Loading historical data...
Loading historical data...
Loading historical data...
Other satellites on launch #165 in the year 2024 (2024-09-14 UTC)

CHAMRAN-1 Visibility forecast

Observer location: undefined°, undefined°

Span
Click to sort rows by Start time (UTC) header in descending order
Start Az.
Max El. time (UTC)
Max El. Az.
Max El.
End time (UTC)
End Az.
6 mins2025-07-06 03:42:59.479Z357.392° N2025-07-06 03:45:59.479Z45.965° ENE19.5°2025-07-06 03:48:59.479Z94.225° ESE
6 mins2025-07-06 05:21:59.479Z303.31° NW2025-07-06 05:23:59.479Z261.315° W32.37°2025-07-06 05:27:59.479Z174.355° S
5 mins2025-07-06 19:16:59.479Z162.674° S2025-07-06 19:18:59.479Z104.846° ESE29.781°2025-07-06 19:21:59.479Z52.254° ENE
5 mins2025-07-06 20:54:59.479Z273.84° WNW2025-07-06 20:56:59.479Z311.81° NW20.57°2025-07-06 20:59:59.479Z3.15° NNE
|